sat.trackr.live / text

‹ back to catalog

STARLINK-4328

NORAD 53071 · 2022-077AE

PAYLOAD ACTIVE UNKNOWN

§ Identity

Operator
Country
US
Launch date
2022-07-11
Launch site
AFWTR
Launch vehicle
Mass (kg)
RCS (m²)

Purposes: comms

External: N2YO · Heavens-Above · Gunter

§ Orbital elements

Epoch: 2026-05-25T02:05:05.648352Z

Period
95.64 min
Inclination
97.4467°
Eccentricity
0.0001546
Mean motion
15.05646247 rev/d
Perigee alt
548.5 km
Apogee alt
550.6 km
Semi-major
6,927.7 km
B*
1.5711e-5
RAAN
326.2204°
Arg perigee
87.6925°
Mean anomaly
272.4479°
Rev number
21,248

§ Raw data

STARLINK-43281 53071U 22077AE  26145.08687093  .00000168  00000+0  15711-4 0  99962 53071  97.4467 326.2204 0001546  87.6925 272.4479 15.05646247212489

JSON: /api/v1/satellites/53071 · /tle

For live sub-satellite position, see the globe view (requires WebGL).

§ Visibility from observer

Set your observer location to see the next 7 days of passes ≥ 10°. The values pass through the URL so the page stays shareable.

No JS? Fill the form by hand. The geolocation button needs JavaScript.